Regional Weather Roundup
Issued by NWS Sterling, VA

Home | Current Version | Previous Version | Graphics & Text | Print | Product List | Glossary On
Versions: 1 2 3 4 5 6 7 8 9 10 11 12 13 14 15 16 17 18 19 20 21 22 23 24 25 26 27 28 29 30 31 32 33 34 35 36 37 38 39 40 41 42 43 44 45 46 47 48 49 50
000
ASUS41 KLWX 262010
RWRLWX

REGIONAL WEATHER ROUNDUP
NATIONAL WEATHER SERVICE BALTIMORE MD/WASHINGTON DC
400 PM EDT SUN APR 26 2015

Note: "FAIR" indicates few or no clouds below 12,000 feet
with no significant weather and/or obstructions to visibility.
 TC=TEMPERATURE CELSIUS

 * =Non NWS site. Station does not report precipitation (e.g. rain,
    snow, etc.), thunder, or fog.

DCZ001-MDZ009-015-VAZ040>042-051-053>054-262100-
WASHINGTON METRO

CITY           SKY/WX    TMP DP  RH WIND       PRES   REMARKS
WASHINGTON NAT MOSUNNY   65  34  31 NE7       29.68F
DULLES         MOSUNNY   61  31  32 W3        29.69F
ANDREWS AFB    SUNNY     61  33  35 N7        29.67F
FT BELVOIR     MOSUNNY   62  31  30 VRB3      29.68F
QUANTICO       MOSUNNY   62  36  37 S5        29.70F
COLLEGE PARK*  MOSUNNY   63  30  29 NW7       29.68F
LEESBURG*      SUNNY     63  34  34 N12G17    29.70F
GAITHERSBURG*  MOSUNNY   59  30  33 W3        29.72F

$$

MDZ006>007-011-014-262100-
BALTIMORE METRO

CITY           SKY/WX    TMP DP  RH WIND       PRES   REMARKS
BWI AIRPORT    PTSUNNY   64  31  28 NW10      29.67F
MD SCIENCE CTR   N/A     65  29  25 MISG      29.68F
MARTIN STATE   MOSUNNY   61  36  39 SE7       29.70S
ANNAPOLIS      MOSUNNY   58  35  42 SE12      29.68S
FORT MEADE*    MOSUNNY   63  32  31 NW8       29.70S

$$

MDZ012-015-019>023-262100-
MARYLAND EASTERN SHORE

CITY           SKY/WX    TMP DP  RH WIND       PRES   REMARKS
OCEAN CITY     SUNNY     55  41  59 E10       29.69S
SALISBURY      CLOUDY    60  33  36 N5        29.67S
BAY BRIDGE AP*   N/A    N/A N/A N/A NW7       29.69S
CAMBRIDGE*     MOSUNNY   61  34  36 NW7       29.68S
EASTON*        MOSUNNY   64  36  34 N7G23     29.72S

$$

MDZ017>025-262100-
SOUTHERN MARYLAND

CITY           SKY/WX    TMP DP  RH WIND       PRES   REMARKS
PATUXENT RIVER MOSUNNY   60  36  40 N8        29.69F
ST INIGOES     MOSUNNY   58  40  51 SW6       29.69S
LEONARDTOWN*   SUNNY     59  27  29 NE6       29.71S

$$

MDZ003>005-262100-
NORTH CENTRAL MARYLAND

CITY           SKY/WX    TMP DP  RH WIND       PRES   REMARKS
FREDERICK*     MOSUNNY   63  19  19 CALM      29.72S
HAGERSTOWN APT SUNNY     61  29  29 VRB6      29.69F
WESTMINSTER*   SUNNY     61  21  21 N7        29.70S

$$

MDZ501>502-262100-
WESTERN MARYLAND

CITY           SKY/WX    TMP DP  RH WIND       PRES   REMARKS
OAKLAND*       SUNNY     52  28  40 W9        29.71S
CUMBERLAND*    SUNNY     64  28  25 N9        29.72F

$$

VAZ025>031-262100-
SHENANDOAH VALLEY

CITY           SKY/WX    TMP DP  RH WIND       PRES   REMARKS
WINCHESTER*    MOSUNNY   63  23  22 NW7       29.69F
FRONT ROYAL*   FAIR      59  34  38 N5        29.69F
LURAY*         MOCLDY    61  36  39 CALM      29.70F
NEW MARKET*    FAIR      58  35  42 NE3       29.69F
STAUNTON*      MOSUNNY   57  33  39 CALM      29.73S
WAYNESBORO*    MOCLDY    53  34  48 N6        29.72S

$$

WVZ021-048>050-054>055-262100-
EASTERN WEST VIRGINIA PANHANDLE

CITY           SKY/WX    TMP DP  RH WIND       PRES   REMARKS
MARTINSBURG    MOSUNNY   63  29  27 W7G20     29.69F
PETERSBURG*    MOSUNNY   60  30  31 CALM      29.70F

$$

VAZ036>039-050-262100-
CENTRAL FOOTHILLS

CITY           SKY/WX    TMP DP  RH WIND       PRES   REMARKS
CHARLOTTESVILL MOSUNNY   60  35  39 CALM      29.70F
CULPEPER*      MOSUNNY   63  36  36 NE6       29.70F
ORANGE*        MOSUNNY   61  34  36 NW7       29.71F
GORDONSVILLE*  FAIR      59  34  39 N8        29.70S
WARRENTON*     PTSUNNY   62  38  40 NE3       29.69F

$$

VAZ055>057-262100-
NORTH AND CENTRAL PIEDMONT

CITY           SKY/WX    TMP DP  RH WIND       PRES   REMARKS
FREDERICKSBRG* SUNNY     63  34  34 CALM      29.69S
STAFFORD*      MOSUNNY   59  29  31 CALM      29.73F

$$

NCZ024-NYZ072-PAZ021-071-VAZ022-071-262100-
OTHER REGIONAL OBSERVATIONS

CITY           SKY/WX    TMP DP  RH WIND       PRES   REMARKS
NEW YORK CITY  CLOUDY    62  27  26 CALM      29.68F
PHILADELPHIA   PTSUNNY   60  28  29 VRB3      29.67F
PITTSBURGH     MOSUNNY   58  27  30 N14G21    29.75F
ROANOKE        CLOUDY    51  43  74 N8        29.77S
RICHMOND       MOSUNNY   62  39  42 NE10      29.70F
RALEIGH        CLOUDY    52  46  80 N8        29.72F

$$

ANZ530>537-262100-
MARINE OBSERVATIONS

STATION/POSITION TIME  TEMP    WIND        PRES
                       AIR SEA DIR/SP/G
                 (UTC) (F)     (DEG/KT/KT) (MB)
THOMAS PT LIGHT  2000   57 54   80/  3/  4 1005.9F
BALT KEY BRIDGE  1900   56     130/  7/  8 1004.9F
COVE POINT       1900   53     350/  8/  9 1006.4F
LEWISETTA        1900   55 57              1005.6R
SOLOMONS ISLAND  1900      56                N/A
PINEY POINT      1900          190/  4/  5   N/A

$$




USA.gov is the U.S. government's official web portal to all federal, state and local government web resources and services.